Flag for Indonesia Weather past 2 weeks in Manado, North Sulawesi, Indonesia

Now
82 °F

Passing clouds.


Feels Like: 83 °F
Forecast: 80 / 89 °F
Wind: 5 mph from North

Location: Menado / Dr. Sam Ratulangi

Current Time: Jul 6, 2015 at 7:24:47 AM

Latest Report: Jul 6, 2015 at 7:00 AM


Visibility: N/A

Pressure: 29.83 "Hg

Humidity: 51%

Dew point: 63 °F

Location of ManadoLocation

Historic Weather in Manado — Graph

°F

Manado temperature yesterday

Maximum temperature yesterday: 91 °F (at 12:30 PM)
Minimum temperature yesterday: 81 °F (at 12:00 AM)
Average temperature yesterday: 85 °F

Past Weeks' High & Low Weather Summary

 TemperatureHumidityPressure
High91 °F (Jun 25, 1:30 PM)100% (Jun 21, 10:30 PM)29.98 "Hg (Jun 21, 10:30 PM)
Low72 °F (Jun 25, 5:30 AM)43% (Jul 4, 11:30 AM)29.71 "Hg (Jul 4, 2:00 PM)
Average83 °F67%29.86 "Hg
* Reported Jun 21 6:00 AM — Jul 6 6:00 AM, Manado, Weather by CustomWeather, © 2015

Note: Actual official high and low records may vary slightly from our data, if they occured in-between our weather recording intervals... More about our weather records

Advertising

Manado weather history for previous 24 hours

 ConditionsComfort  
Time TempWeatherWind HumidityBarometerVisibility
6:00 AM
Mon, Jul 6
81 °FPassing clouds.9 mph58%29.83 "HgN/A
5:30 AM81 °FPassing clouds.9 mph58%29.83 "HgN/A
5:00 AM79 °FPassing clouds.5 mph61%29.80 "HgN/A
4:30 AM79 °FPassing clouds.8 mph61%29.80 "HgN/A
4:00 AM81 °FPassing clouds.8 mph58%29.80 "HgN/A
3:30 AM81 °FPassing clouds.13 mph58%29.80 "HgN/A
2:00 AM81 °FPassing clouds.9 mph58%29.80 "HgN/A
1:30 AM81 °FPassing clouds.10 mph58%29.80 "HgN/A
12:30 AM81 °FThunderstorms. Overcast.N/A54%29.77 "HgN/A
11:00 PM
Sun, Jul 5
81 °FPassing clouds.12 mph58%29.83 "HgN/A
10:00 PM81 °FPassing clouds.14 mph58%29.83 "HgN/A
9:30 PM81 °FPassing clouds.14 mph58%29.80 "HgN/A
9:00 PM81 °FPassing clouds.14 mph58%29.80 "HgN/A
8:30 PM82 °FPassing clouds.15 mph55%29.80 "HgN/A
8:00 PM82 °FPassing clouds.17 mph55%29.80 "HgN/A
7:30 PM82 °FPassing clouds.16 mph55%29.80 "HgN/A
7:00 PM82 °FPassing clouds.20 mph55%29.77 "HgN/A
6:30 PM82 °FPassing clouds.17 mph58%29.77 "HgN/A
6:00 PM82 °FPassing clouds.15 mph58%29.74 "HgN/A
5:30 PM84 °FPassing clouds.15 mph55%29.74 "HgN/A
5:00 PM86 °FPassing clouds.15 mph55%29.74 "HgN/A
4:30 PM88 °FPassing clouds.16 mph49%29.74 "HgN/A
4:00 PM88 °FPassing clouds.17 mph49%29.74 "HgN/A
3:30 PM90 °FPassing clouds.18 mph46%29.74 "HgN/A
3:00 PM90 °FPassing clouds.21 mph46%29.74 "HgN/A
2:30 PM90 °FPassing clouds.18 mph49%29.74 "HgN/A
2:00 PM91 °FPassing clouds.18 mph44%29.74 "HgN/A
1:30 PM91 °FPassing clouds.20 mph44%29.74 "HgN/A
1:00 PM91 °FPassing clouds.20 mph44%29.77 "HgN/A
12:30 PM91 °FPassing clouds.20 mph44%29.77 "HgN/A
12:00 PM90 °FPassing clouds.20 mph49%29.80 "HgN/A
11:00 AM90 °FPassing clouds.17 mph46%29.83 "HgN/A
10:30 AM90 °FPassing clouds.15 mph46%29.83 "HgN/A
10:00 AM88 °FPassing clouds.20 mph49%29.83 "HgN/A
9:30 AM88 °FPassing clouds.21 mph49%29.83 "HgN/A
9:00 AM88 °FPassing clouds.20 mph46%29.83 "HgN/A
8:30 AM86 °FPassing clouds.17 mph49%29.83 "HgN/A
8:00 AM84 °FPassing clouds.17 mph51%29.86 "HgN/A
7:30 AM82 °FPassing clouds.14 mph58%29.86 "HgN/A
7:00 AM82 °FPassing clouds.16 mph58%29.83 "HgN/A
Weather by CustomWeather, © 2015

See weather overviewHow to use our weather pages